Angoon, AK

6:22 AM AKST on December 06, 2019 (GMT -0900)
Angoon

Weather History for PAGN - May, 2019

Change the Weather History Date:

Wednesday, May 15, 2019

  Actual Average (PASI) Record (PASI)
Temperature  
Mean Temperature 48 °F 48 °F  
Max Temperature 54 °F 53 °F 63 °F (1969)
Min Temperature 43 °F 42 °F 32 °F (1950)
Degree Days  
Heating Degree Days 16 17  
Month to date heating degree days 281  
Moisture  
Dew Point 45 °F    
Average Humidity 83    
Maximum Humidity 97    
Minimum Humidity 71    
Precipitation  
Precipitation 0.02 in 0.14 in 1.77 in (1964)
Month to date precipitation 2.09  
Year to date precipitation 27.46  
Sea Level Pressure  
Sea Level Pressure 29.88 in    
Wind  
Wind Speed 1 mph (ESE)    
Max Wind Speed 9 mph    
Max Gust Speed -    
Visibility 10 miles    
Events Rain    
T = Trace of Precipitation, MM = Missing Value Source: NWS Daily Summary

Daily Weather History Graph

Daily Weather History Graph

Search for Another Location

Airport or City:

Astronomy

May. 15, 2019 Rise Set
Actual Time 4:37 AM AKDT 9:13 PM AKDT
Civil Twilight 3:43 AM AKDT 10:08 PM AKDT
Nautical Twilight 2:11 AM AKDT 11:43 PM AKDT
Astronomical Twilight Sun does not rise Sun does not rise
Moon 4:53 PM AKDT (5/15) 4:14 AM AKDT (5/15)
Length of Visible Light 18h 25m
Length of Day
16h 36m
Waxing Gibbous, 88% of the Moon is Illuminated
May 15
Waxing Gibbous
May 18
Full
May 26
Last Quarter
Jun 3
New
Jun 9
First Quarter

Hourly Weather History & Observations

Time (AKDT) Temp. Dew Point Humidity Pressure Visibility Wind Dir Wind Speed Gust Speed Precip Events Conditions
12:56 AM 46.9 °F 46.0 °F 97% 29.83 in 10.0 mi Calm Calm - 0.00 in   Overcast
1:27 AM 48.2 °F 46.4 °F 93% 29.86 in 10.0 mi Calm Calm - 0.00 in Rain Light Rain
1:47 AM 48.2 °F 46.4 °F 93% 29.86 in 10.0 mi Calm Calm - 0.00 in   Overcast
1:56 AM 48.0 °F 46.9 °F 96% 29.83 in 10.0 mi Calm Calm - 0.00 in Rain Light Rain
2:56 AM 48.0 °F 46.0 °F 93% 29.85 in 10.0 mi Calm Calm - 0.00 in   Overcast
3:23 AM 48.2 °F 46.4 °F 93% 29.88 in 10.0 mi ESE 4.6 mph - N/A   Overcast
3:56 AM 48.9 °F 44.1 °F 83% 29.86 in 10.0 mi ESE 9.2 mph - N/A   Overcast
4:56 AM 48.9 °F 44.1 °F 83% 29.86 in 10.0 mi ENE 3.5 mph - N/A   Overcast
5:56 AM 48.9 °F 44.1 °F 83% 29.88 in 10.0 mi Calm Calm - N/A   Overcast
6:56 AM 48.9 °F 44.1 °F 83% 29.88 in 10.0 mi Calm Calm - 0.00 in Rain Light Rain
7:36 AM 48.2 °F 44.6 °F 87% 29.92 in 10.0 mi Calm Calm - 0.00 in Rain Light Rain
7:56 AM 50.0 °F 45.0 °F 83% 29.89 in 10.0 mi Calm Calm - 0.00 in   Overcast
8:15 AM 50.0 °F 44.6 °F 82% 29.92 in 10.0 mi Calm Calm - N/A   Overcast
8:29 AM 50.0 °F 44.6 °F 82% 29.93 in 10.0 mi SSE 3.5 mph - N/A   Overcast
8:56 AM 51.1 °F 44.1 °F 77% 29.90 in 10.0 mi Calm Calm - N/A   Overcast
9:37 AM 51.8 °F 44.6 °F 76% 29.93 in 10.0 mi Calm Calm - N/A   Overcast
9:56 AM 52.0 °F 44.1 °F 74% 29.91 in 10.0 mi Calm Calm - N/A   Overcast
10:27 AM 50.0 °F 44.6 °F 82% 29.94 in 10.0 mi Calm Calm - N/A   Overcast
10:56 AM 50.0 °F 45.0 °F 83% 29.91 in 10.0 mi Calm Calm - N/A   Overcast
11:56 AM 48.9 °F 46.0 °F 90% 29.91 in 10.0 mi Calm Calm - 0.01 in Rain Light Rain
12:56 PM 50.0 °F 46.0 °F 86% 29.93 in 10.0 mi Calm Calm - 0.00 in   Overcast
1:48 PM 51.8 °F 44.6 °F 76% 29.95 in 10.0 mi Variable 4.6 mph - 0.00 in   Overcast
1:56 PM 52.0 °F 45.0 °F 77% 29.92 in 10.0 mi South 8.1 mph - 0.00 in   Overcast
2:14 PM 51.8 °F 42.8 °F 71% 29.95 in 10.0 mi Variable 4.6 mph - N/A   Overcast
2:56 PM 52.0 °F 43.0 °F 71% 29.91 in 9.0 mi Calm Calm - 0.00 in Rain Rain
3:56 PM 52.0 °F 43.0 °F 71% 29.90 in 10.0 mi North 3.5 mph - 0.01 in   Overcast
4:56 PM 51.1 °F 45.0 °F 80% 29.88 in 10.0 mi Calm Calm - 0.00 in   Overcast
5:56 PM 53.1 °F 45.0 °F 74% 29.86 in 10.0 mi Calm Calm - N/A   Overcast
6:56 PM 51.1 °F 44.1 °F 77% 29.85 in 10.0 mi Calm Calm - N/A   Overcast
7:56 PM 50.0 °F 43.0 °F 77% 29.83 in 10.0 mi Calm Calm - N/A   Partly Cloudy
8:56 PM 48.0 °F 43.0 °F 83% 29.82 in 10.0 mi Calm Calm - N/A   Clear
9:56 PM 45.0 °F 43.0 °F 93% 29.81 in 10.0 mi Calm Calm - N/A   Mostly Cloudy
10:56 PM 44.1 °F 42.1 °F 93% 29.79 in 10.0 mi Calm Calm - N/A   Clear
11:56 PM 43.0 °F 42.1 °F 97% 29.77 in 10.0 mi Calm Calm - N/A   Mostly Cloudy